STARLINK-1193 (45100 NORAD) Tracking and Keplerian Element Data

This shows tracking and keplerian element data for the satellite.

Feedback or suggestion? Click here.




ElementValue
Catalog45100
NameSTARLINK-1193
Epoch Orbit180
Epoch Day47.75001157
Epoch Year2020
RAAN145.2269
Inclination52.997
Eccentricity0.0001488
Argument of Perigee54.1434
Mean Anonmoly323.4399
Mean Motion15.73220213
Decay Rate0.00053703
L11 45100U 20006BJ 20047.75001157 .00053703 00000-0 38419-3 0 9993
L22 45100 52.9970 145.2269 0001488 54.1434 323.4399 15.73220213 1803

Live tracking and technical data element details for STARLINK-1193 (NORAD 45100). STARLINK-1193 can be tracked NOW for your location showing map with azimuth and elevation plus other details from your city location.

Track the satellite on the map from your city or location and see movement details for azimuth, elevation, latitude, longitude, range, height, and movement on the map or in text.







IsCatalogInMostPopularTable: catalog: 45100, numindb: 3
Update: records affected: 1



GetName: 45100 STARLINK-1193

Hit Count: updated at: Tue, 18 Feb 2020 02:00:18 GMT